Regional Weather Roundup
Issued by NWS

Home | Current Version | Previous Version | Graphics & Text | Print | Product List | Glossary On
Versions: 1 2 3 4 5 6 7 8 9 10 11 12 13 14 15 16 17 18 19 20 21 22 23 24 25 26 27 28 29 30 31 32 33 34 35 36 37 38 39 40 41 42 43 44 45 46 47 48 49 50
000
ASUS43 KBIS 291159
RWRND

NORTH DAKOTA REGIONAL WEATHER ROUNDUP
NATIONAL WEATHER SERVICE BISMARCK ND
600 AM CST MON DEC 29 2014

NOTE: "FAIR" INDICATES FEW OR NO CLOUDS BELOW 12,000 FEET WITH NO
SIGNIFICANT WEATHER AND/OR OBSTRUCTIONS TO VISIBILITY.


NDZ001>003-009>011-017-291300-
NORTHWEST NORTH DAKOTA

CITY           SKY/WX    TMP DP  RH WIND       PRES   REMARKS
WILLISTON      PTCLDY   -10 -16  74 N8        30.63R WCI -26
6HR MIN TEMP: -10; 6HR MAX TEMP:  -6;

MINOT          PTCLDY   -13 -19  75 NW9       30.60R WCI -31
MINOT AFB      PTCLDY   -15 -20  76 NW9       30.61R WCI -33
$$

NDZ018>021-031>035-040>046-291300-
SOUTHWEST NORTH DAKOTA

CITY           SKY/WX    TMP DP  RH WIND       PRES   REMARKS
BISMARCK       CLEAR     -7 -13  75 N8        30.60R WCI -23
6HR MIN TEMP:  -8; 6HR MAX TEMP:   1;

GARRISON         N/A    -10 -15  78 N10       30.57R WCI -29
6HR MIN TEMP: -10; 6HR MAX TEMP:  -5;

HETTINGER ARPT CLOUDY     0  -4  83 N12       30.46R WCI -17
$$

NDZ004>008-012>016-024-026-027-054-291300-
NORTHEAST NORTH DAKOTA

CITY           SKY/WX    TMP DP  RH WIND       PRES   REMARKS
GRAND FORKS    PTCLDY   -13 -19  75 N8        30.65R WCI -30
DEVILS LAKE    MOCLDY   -11 -22  58 N8        30.57R WCI -28
$$

NDZ022-023-025-028>030-036>039-047>053-291300-
SOUTHEAST NORTH DAKOTA

CITY           SKY/WX    TMP DP  RH WIND       PRES   REMARKS
FARGO          CLEAR     -7 -13  75 N13       30.61R WCI -27
6HR MIN TEMP:  -7; 6HR MAX TEMP:  -4;

$$



USA.gov is the U.S. government's official web portal to all federal, state and local government web resources and services.